Regional Weather Roundup
Issued by NWS

Home | Current Version | Previous Version | Text Only | Print | Product List | Glossary Off
Versions: 1 2 3 4 5 6 7 8 9 10 11 12 13 14 15 16 17 18 19 20 21 22 23 24 25 26 27 28 29 30 31 32 33 34 35 36 37 38 39 40 41 42 43 44 45 46 47 48 49 50

000
ASUS45 KCYS 300410
RWRWY

WYOMING REGIONAL WEATHER ROUNDUP
NATIONAL WEATHER SERVICE CHEYENNE WY
1000 PM MDT SUN MAY 29 2016

NOTE:  "FAIR" INDICATES FEW OR NO CLOUDS BELOW 12,000 FEET
WITH NO SIGNIFICANT WEATHER AND/OR OBSTRUCTIONS TO VISIBILITY.

WYZ001-300500-
YELLOWSTONE NATIONAL PARK

CITY           SKY/WX    TMP DP  RH WIND       PRES   REMARKS
LK YELLOWSTONE   N/A     44  32  62 CALM      30.17F
W YELLOWSTONE  NOT AVBL

$$
WYZ002>013-054>058-071-098>099-300500-
NORTHERN WYOMING

CITY           SKY/WX    TMP DP  RH WIND       PRES   REMARKS
JACKSON        FAIR      50  39  66 SW7       30.13R
CODY           FAIR      59  36  41 CALM      29.99R
GREYBULL       FAIR      69  33  26 S5        29.91S
WORLAND        FAIR      63  36  36 SE7       29.93R
SHERIDAN       FAIR      57  49  74 SW3       29.96R
BUFFALO        FAIR      55  42  61 W9        30.01R
GILLETTE       FAIR      49  42  77 SW3       29.98S
HULETT         FAIR      59  46  63 E8        30.02F
NEWCASTLE      FAIR      61  32  33 E6        30.01R

$$
WYZ014>020-022>026-101>103-300500-
CENTRAL WYOMING

CITY           SKY/WX    TMP DP  RH WIND       PRES   REMARKS
BIG PINEY      FAIR      47  40  76 W6        30.21R
PINEDALE       DRIZZLE   46  41  81 W12G21    30.24R
DUBOIS         FAIR      52  30  43 SW21      30.12S
LANDER         CLOUDY    56  40  55 W24G36    30.10R
RIVERTON       FAIR      61  38  42 W18       30.09R
CASPER         FAIR      61  37  41 W15       30.02R
DOUGLAS          N/A    N/A N/A N/A MISG      30.03S

$$
WYZ021-027>030-104>119-300500-
SOUTHERN WYOMING

CITY           SKY/WX    TMP DP  RH WIND       PRES   REMARKS
EVANSTON       FAIR      51  37  58 SW8G18    30.19R
KEMMERER         N/A     52  39  62 CALM      30.20R
FORT BRIDGER   FAIR      54  37  54 SW16      30.20R
ROCK SPRINGS   FAIR      54  38  54 SW7       30.15S
DIXON          FAIR      50  42  72 NE7       30.20S
RAWLINS        FAIR      54  33  45 W10       30.16R
SARATOGA       FAIR      46  37  71 SE12      30.20R
LARAMIE        FAIR      46  40  79 S12       30.19S
CHEYENNE       FAIR      55  42  61 W12       30.13F
TORRINGTON     FAIR      60  46  59 SE7       30.00F
PINE BLUFFS    FAIR      52  45  76 W7        30.10S

$$



USA.gov is the U.S. government's official web portal to all federal, state and local government web resources and services.